Starlink 11101

operational
NORAD ID: 59715 Int'l Des: 2024-088 Owner: SPXS Country: US Constellation: starlink
LEOCIRCULAR

About Starlink 11101

Description loading...

Live Position

Loading 3D Globe...

Upcoming Passes

Altitude History

Altitude vs Time

uPlot chart will show altitude changes over time

Two-Line Element Set

1 59715U 24088H 25258.79117156 .00001716 00000-0 19006-4 0 9993
2 59715 53.1592 108.3703 0001008 76.4234 283.6896 15.69726468 78800
Epoch: Sep 15, 2025 • Age: 13 hours

Current Status

Altitude 362.1 km
Velocity 7.70 km/s
Sub-Earth Point 36.33°N, 140.4°E
Launch Date May 10, 2024
Age 1.3 years
Type internet

Technical Details

Classification Payload
Mass 960.00 kg
Dry Mass 910.00 kg
Total Mass 960.00 kg
Length 0.30 m
Diameter 4.10 m
Span 29.00 m
Shape Box + pan
Manufacturer SPXS
Bus Type Starlink V2MD
Phase Status In Orbit
Owner/State SPXS/US

Large Constellations

Loading constellations...